Vorticity
4 6 7 5 7 8 8 6 5 5 5 7 6 7 7 6 6 5 6 4 5 5 3 3 4 4 6 6 3 2 4 3 1 0 2 5 -2 1 1 4 11 0 4 -1 -6
3 6 6 7 9 6 6 5 5 5 5 5 7 6 7 5 5 7 2 4 6 6 6 6 5 5 4 4 4 5 4 5 5 4 1 0 4 5 -4 0 1 7 10 -5 10
4 6 6 7 7 6 5 4 6 6 6 4 7 6 6 5 3 3 4 3 2 3 3 2 4 5 6 8 9 6 4 4 4 6 7 4 1 1 3 2 3 9 -6 15 6
8 8 7 6 6 8 6 6 6 5 7 6 5 6 3 3 3 2 2 2 3 3 4 5 5 5 6 6 6 8 8 7 6 4 5 6 8 3 2 1 0 3 8 14 -1
10 9 6 6 6 6 7 6 7 4 7 5 6 5 4 3 4 3 4 3 3 4 5 4 6 8 7 8 10 6 4 5 7 6 7 7 8 7 6 4 -1 1 3 3 2
8 8 6 6 8 7 6 6 6 6 4 4 6 6 6 3 2 5 6 4 3 5 6 7 8 9 8 9 10 9 6 5 4 3 4 6 8 8 8 9 6 3 2 4 3
7 7 7 9 7 6 6 5 5 4 4 5 6 7 7 6 5 5 4 4 6 7 6 6 7 6 8 8 6 6 9 7 3 6 4 6 7 6 7 8 9 10 4 1 2
11 10 8 7 6 5 4 4 4 4 5 5 6 6 5 6 7 6 5 6 4 4 5 7 8 7 7 6 7 6 6 6 7 5 6 6 7 7 9 6 7 10 10 9 6
5 4 3 3 3 3 3 3 4 5 6 7 7 6 6 6 6 5 5 4 5 4 6 8 6 6 6 5 6 4 6 8 6 7 4 5 7 6 6 6 7 7 12 13 10
5 4 4 4 3 2 3 3 4 5 5 4 4 5 5 3 3 4 5 5 6 6 7 8 6 5 5 5 5 5 7 7 5 5 4 5 6 6 6 4 7 9 12 12 13
3 3 3 4 4 5 5 5 5 5 3 2 3 5 4 4 6 7 6 5 10 5 10 6 6 5 4 7 6 5 6 5 5 6 6 5 7 7 7 8 9 10 9 8 10
3 4 4 5 5 5 5 5 4 4 5 4 4 4 6 8 8 7 9 10 5 7 7 5 6 5 6 6 6 6 7 4 6 4 6 6 9 11 9 13 14 10 7 12 8
6 7 7 7 6 6 5 5 5 5 5 6 7 9 9 9 7 9 5 5 5 9 3 7 4 5 6 6 6 6 5 5 2 7 5 4 10 7 12 13 15 12 5 6 8
6 6 6 6 6 6 6 6 6 7 8 9 10 8 9 8 4 5 7 5 9 4 8 7 5 6 7 6 5 7 5 4 2 5 5 7 6 -1 17 17 8 8 6 2 5
6 6 6 6 6 6 6 6 6 5 5 10 10 5 4 6 8 8 7 6 9 6 6 6 6 6 5 5 5 5 7 2 5 5 5 8 2 9 12 10 8 8 5 8 6
5 4 3 3 3 4 4 5 6 7 6 7 10 7 6 9 6 6 6 6 4 4 6 4 6 5 5 6 7 5 7 6 5 6 5 4 7 7 8 9 6 14 7 5 5
3 3 3 3 4 5 6 8 9 7 8 10 9 6 6 4 3 5 4 4 4 6 4 4 5 6 8 8 8 9 7 6 3 5 5 5 4 2 5 10 7 7 1 4 9
3 5 5 5 6 7 8 8 8 7 6 6 5 3 4 5 4 4 6 6 6 5 4 2 7 7 9 7 8 10 8 8 6 7 7 6 4 6 11 6 8 8 6 10 13
5 5 5 5 6 7 6 6 5 4 3 4 4 4 4 4 4 5 6 5 5 5 7 5 5 5 8 8 8 6 8 7 9 8 10 7 3 6 11 10 6 8 11 6 5
6 6 6 6 5 5 5 4 5 4 5 4 4 4 4 4 4 6 4 7 5 6 7 5 3 5 6 8 10 6 7 7 8 8 11 5 9 15 9 3 6 14 -1 13 5
4 4 4 4 4 5 4 4 4 4 4 5 4 3 3 5 4 4 4 4 6 5 2 1 0 5 7 11 11 14 15 15 11 7 11 20 14 2 2 3 -0 2 12 6 4
5 4 4 4 4 4 4 4 4 4 5 4 4 5 6 5 4 4 5 6 7 4 -1 0 1 8 9 17 14 8 10 12 14 13 7 6 -9 5 9 8 22 32 14 15 3
5 4 4 5 5 4 3 3 4 5 5 5 4 3 4 6 7 5 7 5 3 0 0 6 10 14 13 10 7 10 3 10 11 6 6 10 11 15 22 16 15 2 6 8 9
3 2 2 4 5 4 6 5 5 4 4 5 5 6 6 6 6 5 2 1 2 6 16 19 18 12 8 9 6 5 9 9 7 5 13 11 7 7 1 5 8 7 11 10 1
4 9 9 7 11 10 8 6 7 9 6 6 5 -0 1 1 5 4 3 7 15 21 16 12 7 10 8 10 10 10 10 11 10 15 3 3 7 8 6 4 25 10 1 2 12
11 17 16 22 20 18 17 12 8 8 8 6 7 7 16 24 24 25 25 26 11 5 7 5 5 7 11 13 10 3 12 10 6 6 5 5 11 10 17 19 7 8 20 16 1
7 6 5 4 1 2 4 6 11 15 14 19 20 10 2 2 2 2 8 3 4 7 12 9 11 11 -0 2 6 2 15 7 2 0 10 16 13 10 20 16 16 11 14 6 -4
Height
5833 5834 5835 5836 5838 5839 5841 5842 5843 5844 5845 5846 5846 5846 5847 5847 5847 5847 5847 5847 5846 5845 5845 5844 5843 5842 5841 5840 5838 5837 5836 5834 5833 5831 5829 5828 5825 5824 5822 5820 5818 5816 5814 5811 5809
5834 5835 5836 5837 5839 5840 5842 5843 5844 5845 5846 5847 5847 5848 5848 5848 5848 5848 5848 5847 5846 5846 5845 5844 5843 5842 5840 5839 5837 5836 5834 5833 5832 5830 5829 5826 5825 5823 5821 5820 5818 5815 5813 5811 5809
5835 5837 5838 5838 5840 5842 5843 5844 5845 5846 5847 5848 5848 5849 5849 5849 5849 5848 5848 5848 5847 5846 5845 5844 5843 5841 5839 5838 5836 5834 5833 5831 5830 5829 5826 5825 5823 5821 5820 5817 5816 5813 5811 5808 5806
5836 5837 5838 5840 5841 5842 5843 5845 5846 5847 5848 5848 5849 5849 5849 5850 5851 5849 5848 5847 5846 5845 5844 5843 5842 5840 5838 5836 5834 5833 5831 5829 5827 5826 5824 5822 5821 5818 5816 5814 5812 5811 5809 5806 5803
5836 5838 5839 5841 5842 5843 5844 5845 5847 5847 5848 5848 5849 5849 5849 5850 5849 5848 5848 5847 5845 5844 5843 5841 5840 5838 5836 5834 5832 5830 5828 5827 5824 5823 5821 5819 5817 5814 5812 5810 5807 5806 5805 5802 5800
5837 5838 5840 5841 5842 5843 5845 5846 5847 5847 5848 5848 5848 5848 5848 5849 5847 5847 5846 5845 5844 5842 5841 5839 5837 5835 5833 5832 5830 5828 5826 5823 5822 5820 5818 5815 5814 5810 5807 5806 5803 5801 5800 5797 5795
5838 5839 5840 5841 5842 5844 5845 5846 5846 5847 5847 5848 5848 5847 5847 5848 5846 5845 5844 5843 5841 5840 5838 5836 5834 5832 5830 5828 5826 5824 5822 5820 5818 5817 5815 5812 5809 5808 5802 5799 5798 5795 5793 5791 5789
5839 5840 5841 5842 5843 5844 5844 5845 5845 5845 5846 5846 5846 5846 5846 5845 5844 5843 5842 5840 5839 5837 5835 5833 5831 5829 5827 5824 5823 5820 5818 5818 5816 5813 5810 5809 5804 5802 5800 5794 5792 5790 5787 5785 5782
5839 5840 5841 5842 5843 5843 5843 5843 5843 5844 5844 5844 5844 5843 5843 5842 5841 5840 5839 5837 5836 5834 5832 5830 5828 5825 5823 5821 5819 5816 5814 5812 5812 5807 5805 5802 5800 5795 5792 5789 5785 5782 5780 5778 5775
5839 5840 5841 5841 5842 5841 5841 5841 5841 5842 5842 5841 5841 5842 5840 5839 5838 5836 5835 5834 5832 5830 5828 5826 5824 5822 5819 5817 5815 5812 5809 5807 5803 5802 5800 5796 5796 5789 5785 5781 5777 5775 5774 5771 5768
5838 5838 5839 5839 5839 5839 5839 5840 5841 5840 5839 5838 5838 5837 5837 5836 5834 5833 5831 5829 5828 5826 5824 5822 5820 5817 5815 5813 5810 5806 5804 5800 5798 5795 5793 5789 5788 5784 5780 5775 5770 5768 5766 5765 5762
5835 5836 5836 5836 5836 5836 5836 5836 5836 5837 5836 5835 5834 5833 5832 5831 5829 5828 5826 5825 5822 5821 5819 5819 5815 5812 5810 5807 5804 5801 5799 5795 5792 5789 5785 5783 5780 5777 5774 5768 5764 5761 5758 5757 5754
5833 5833 5833 5833 5833 5833 5833 5833 5832 5832 5832 5831 5830 5828 5828 5826 5824 5822 5821 5818 5817 5815 5813 5812 5809 5806 5804 5801 5798 5796 5792 5789 5785 5781 5778 5775 5771 5769 5766 5763 5758 5754 5751 5749 5747
5829 5829 5830 5830 5831 5829 5828 5828 5827 5826 5827 5827 5825 5824 5822 5820 5819 5816 5814 5813 5811 5809 5807 5806 5803 5800 5798 5795 5791 5789 5785 5781 5777 5773 5769 5765 5760 5760 5758 5753 5750 5748 5744 5741 5738
5826 5826 5826 5826 5825 5825 5824 5823 5822 5822 5821 5822 5819 5818 5816 5815 5813 5810 5809 5807 5805 5803 5802 5799 5796 5794 5791 5788 5785 5782 5777 5773 5768 5764 5760 5758 5752 5751 5750 5746 5742 5739 5736 5732 5729
5821 5821 5821 5821 5820 5819 5818 5818 5817 5818 5815 5815 5813 5811 5810 5808 5806 5805 5803 5800 5798 5797 5794 5792 5789 5787 5783 5780 5777 5773 5769 5764 5760 5755 5752 5749 5744 5744 5737 5734 5733 5731 5727 5723 5721
5816 5816 5815 5814 5814 5813 5812 5812 5812 5810 5809 5808 5806 5804 5804 5802 5800 5798 5796 5794 5791 5789 5787 5785 5782 5779 5776 5772 5768 5764 5759 5754 5750 5746 5741 5736 5732 5733 5726 5721 5720 5718 5715 5710 5709
5810 5809 5808 5808 5807 5806 5805 5805 5803 5803 5802 5800 5799 5797 5796 5795 5793 5791 5789 5787 5785 5781 5778 5774 5773 5770 5767 5763 5759 5756 5751 5746 5738 5737 5733 5728 5724 5723 5718 5713 5710 5705 5702 5699 5698
5802 5802 5800 5800 5800 5799 5798 5797 5796 5795 5794 5793 5791 5788 5789 5787 5785 5783 5781 5779 5777 5773 5771 5763 5762 5759 5755 5751 5748 5744 5740 5735 5727 5726 5721 5719 5716 5710 5705 5702 5697 5693 5690 5688 5685
5794 5794 5793 5792 5791 5790 5790 5789 5787 5787 5785 5784 5783 5780 5779 5777 5775 5773 5770 5769 5764 5763 5759 5754 5751 5750 5746 5742 5737 5731 5728 5722 5717 5710 5707 5705 5702 5697 5696 5690 5686 5684 5680 5676 5672
5785 5785 5784 5782 5781 5781 5780 5779 5778 5778 5776 5774 5772 5770 5768 5766 5764 5760 5759 5756 5752 5749 5746 5742 5740 5740 5735 5731 5726 5721 5715 5711 5706 5701 5696 5692 5691 5685 5683 5679 5676 5672 5670 5666 5661
5774 5775 5774 5772 5773 5770 5769 5768 5768 5767 5765 5762 5761 5759 5756 5754 5752 5749 5747 5744 5741 5736 5733 5730 5725 5723 5722 5717 5713 5709 5703 5700 5693 5690 5685 5681 5677 5677 5670 5668 5664 5659 5656 5652 5648
5762 5762 5762 5760 5760 5759 5757 5756 5755 5754 5753 5751 5749 5746 5744 5742 5738 5737 5735 5733 5728 5725 5720 5717 5711 5706 5706 5706 5702 5696 5692 5687 5684 5679 5674 5669 5665 5661 5655 5652 5649 5646 5643 5639 5635
5750 5749 5749 5747 5746 5746 5745 5743 5741 5740 5739 5738 5736 5733 5731 5729 5725 5723 5721 5717 5715 5711 5706 5702 5700 5695 5692 5691 5687 5682 5679 5675 5672 5666 5663 5657 5658 5650 5643 5640 5637 5634 5630 5625 5621
5733 5733 5733 5732 5731 5731 5729 5730 5728 5725 5724 5722 5722 5720 5717 5714 5711 5709 5706 5704 5701 5696 5693 5688 5686 5683 5680 5678 5674 5672 5667 5662 5657 5655 5647 5651 5640 5637 5631 5628 5624 5620 5615 5610 5606
5717 5716 5715 5715 5716 5715 5713 5715 5713 5711 5709 5709 5706 5704 5701 5697 5694 5691 5689 5688 5687 5684 5679 5675 5669 5667 5667 5663 5659 5657 5653 5652 5646 5641 5634 5633 5629 5620 5619 5615 5611 5606 5601 5595 5591
5701 5700 5698 5701 5701 5701 5702 5699 5697 5694 5694 5692 5689 5688 5686 5682 5679 5678 5676 5674 5672 5669 5665 5661 5656 5652 5651 5647 5641 5639 5643 5636 5631 5627 5622 5618 5613 5607 5604 5600 5594 5590 5586 5581 5576